Regional Weather Roundup
Issued by NWS

Home | Current Version | Previous Version | Text Only | Print | Product List | Glossary Off
Versions: 1 2 3 4 5 6 7 8 9 10 11 12 13 14 15 16 17 18 19 20 21 22 23 24 25 26 27 28 29 30 31 32 33 34 35 36 37 38 39 40 41 42 43 44 45 46 47 48 49 50

000
ASUS43 KIND 232009
RWRIN

WEATHER ROUNDUP FOR INDIANA
NATIONAL WEATHER SERVICE INDIANAPOLIS IN
400 PM EDT SAT JUL 23 2016

NOTE: "FAIR" INDICATES FEW OR NO CLOUDS BELOW 12,000 FEET WITH NO
SIGNIFICANT WEATHER AND/OR OBSTRUCTIONS TO VISIBILITY.

* - STATION DOES NOT REPORT WEATHER SUCH AS PRECIPITATION OR FOG.

+ - STATION NOT QUALITY CONTROLLED BY THE NATIONAL WEATHER SERVICE.
    USE DATA WITH CAUTION...ESPECIALLY DEWPOINT AND RELATIVE
    HUMIDITY OBSERVATIONS.

INZ001>003-010>013-019-020-232100-
NORTHWEST INDIANA

CITY           SKY/WX    TMP DP  RH WIND       PRES   REMARKS
GARY /AIRPORT/ CLOUDY    88  84  89 E5        29.96F HX 112
KNOX *+        MOSUNNY   88  68  51 W6        29.97F
LA PORTE +     CLOUDY    91  76  61 S5        29.98F HX 104
MICHIGAN CITY+ CLOUDY    90  75  62 CALM      29.97F HX 100
MONTICELLO +   MOSUNNY   89  70  54 SW5       29.98F
RENSSELAER +   CLOUDY    86  79  79 SW6       29.99S HX  99
VALPARAISO     CLOUDY    90  76  63 SW10      29.98F HX 101

$$

LMZ046-743>745-232100-
SOUTHERN LAKE MICHIGAN

STATION/POSITION TIME  TEMP    WIND        PRES    WAVE
                       AIR SEA DIR/SP/G            HT
                 (UTC) (F)     (DEG/KT/KT) (MB)    (FT)
BURNS HARBOR     1900   82      80/  6/  8 1015.9S
MICHIGAN CITY    1900   79      30/  5/  5   N/A
5NW MICH CITY    2000   81 79   60/  2/  2   N/A     1

$$

INZ004-005-014>016-021>024-232100-
NORTH CENTRAL INDIANA

CITY           SKY/WX    TMP DP  RH WIND       PRES   REMARKS
ELKHART        PTSUNNY   91  75  59 CALM      29.98F HX 102
LOGANSPORT +   MOSUNNY   88  73  62 W3        29.99F HX  96
PERU/GRISSOM   MOSUNNY   90  74  59 VRB5      29.98F HX  99
ROCHESTER +    PTSUNNY   90  77  66 SW8       29.99F HX 102
SOUTH BEND     PTSUNNY   91  75  59 NW6       29.98F HX 101
WARSAW +       CLOUDY    90  72  55 CALM      29.99F HX  96

$$

INZ006>009-017-018-025>027-232100-
NORTHEAST INDIANA

CITY           SKY/WX    TMP DP  RH WIND       PRES   REMARKS
ANGOLA *+        N/A     91  32  12 SW3       30.00F
AUBURN +       SUNNY     91  52  25 SW6       30.00F
FORT WAYNE     PTSUNNY   91  72  53 SW7       29.99F HX  98
HUNTINGTON +   CLOUDY   N/A N/A N/A CALM      29.99F

$$

INZ028-029-035-036-043>045-051>053-232100-
WEST CENTRAL INDIANA

CITY           SKY/WX    TMP DP  RH WIND       PRES   REMARKS
CRAWFORDSVL +  MOSUNNY   86  76  70 W3        30.00F HX  96
GREENCASTLE +  PTSUNNY   88  79  74 CALM      30.01F HX 102
LAFAYETTE      MOSUNNY   88  75  65 SW6       29.98F HX  97
TERRE HAUTE    MOSUNNY   89  72  56 S5        29.99F HX  96

$$

INZ030>032-037>040-046>048-054>057-064-065-232100-
CENTRAL INDIANA

CITY           SKY/WX    TMP DP  RH WIND       PRES   REMARKS
ANDERSON       MOSUNNY   90  72  55 VRB3      30.02F HX  96
FRANKFORT +    MOSUNNY   92  74  55 CALM      30.02F HX 102
INDIANAPOLIS   PTSUNNY   90  74  59 SW8       30.00F HX  99
-EAGLE CREEK   MOSUNNY   92  74  55 NW7       29.99F HX 101
KOKOMO *+      MOSUNNY   90  72  55 W3        29.99F HX  96
MARION +       CLOUDY    88  71  56 CALM      30.01S
MT COMFORT *+  PTSUNNY   86  75  70 CALM      30.01F HX  95
SHELBYVILLE    SUNNY     89  72  56 SW3       30.00S HX  96
ZIONSVILLE +   CLOUDY    87  74  66 CALM      30.02F HX  95

$$

INZ033-034-041-042-049-050-058-059-232100-
EAST CENTRAL INDIANA

CITY           SKY/WX    TMP DP  RH WIND       PRES   REMARKS
MUNCIE         MOSUNNY   90  73  57 NW7       30.01S HX  98

$$

INZ060-061-067>069-081>083-085>088-232100-
SOUTHWEST INDIANA

CITY           SKY/WX    TMP DP  RH WIND       PRES   REMARKS
EVANSVILLE     PTSUNNY   90  75  61 S3        29.98F HX 100
HUNTINGBURG *+ MOSUNNY   90  75  62 W5        29.99S HX 100
WASHINGTON +   MOSUNNY   89  77  65 MISG      29.99S HX 101

$$

INZ062-063-066-070>080-084-089>092-232100-
SOUTH CENTRAL AND SOUTHEAST INDIANA

CITY           SKY/WX    TMP DP  RH WIND       PRES   REMARKS
BLOOMINGTON    PTSUNNY   90  75  61 W3        30.01S HX 100
MADISON *+     MOSUNNY   91  70  49 W7        30.02F HX  97

$$





USA.gov is the U.S. government's official web portal to all federal, state and local government web resources and services.